Tracking 19854 objects as of 23-Sep-2019
HD Live streaming from Space Station
objects crossing your sky now

DELTA 1 DEB

Track DELTA 1 DEB now!
10-day predictions


NORAD ID: 12230
Int'l Code: 1978-026BX
Perigee: 626.8 km
Apogee: 727.8 km
Inclination: 97.8 °
Period: 98.1 minutes
Semi major axis: 7048 km
RCS: 0.0615 m2 (small)
Launch date: March 5, 1978
Source: United States (US)
Launch site: AIR FORCE WESTERN TEST RANGE (AFWTR)

Note: This is SATELLITE DEBRIS
aabbcc
Your satellite tracking list
Your tracking list is empty




NASA's NSSDC Master Catalog

Two Line Element Set (TLE):
1 12230U 78026BX  19265.74640777  .00000317  00000-0  62601-4 0  9996
2 12230  97.8412 275.8772 0071640  95.1539 265.7847 14.67149718 38434
Source of the keplerian elements: AFSPC